DMC 3-FM3

Satellite information

Favourite Embed

Satellite Type and Status

PAYLOADIN ORBIT

Key statistics

Satellite DMC 3-FM3 at a glance.

Uptime

3763

Days in orbit

Revolutions

≈ 14.9

Per day

Orbit

SSO

Sun Synchronous Orbit

Inclination

97.7

Latest

Satellite identification and parameters

Extended collection of information and parameters for DMC 3-FM3.

Object identification

Identified? True

Debris? False

Object name: DMC 3-FM3

International designator: 2015-032C

Object number (NORAD): 40717

Object ID (CCSDS): 40717

Country: UNITED KINGDOM (UK)

Current information (Y/N): Y

RCS size: LARGE

Orbital parameters

Period: 96.949 minutes

Inclination: 97.685 deg

SMA: 6990.715 km

Apoapsis: 617.414 km

Periapsis: 607.745 km

RAAN: 172.8048 deg

Eccentricy: 0.00069154

Argument of periapsis: 100.64 deg

Mean anomaly: 259.5595 deg

Mean motion: 14.85321239 rev/day

Mean motion (dot): 0.00001065 rev/day2

B* drag term: 0.00012986092 1/REarth

Two-line elements (TLE)

Creation date: Oct. 28, 2025, 2:18 a.m.

Reference frame: TEME

Reference center: EARTH

Epoch: Oct. 27, 2025, 10:31 p.m. UTC

TLE line 0: 0 DMC 3-FM3

TLE line 1: 1 40717U 15032C 25300.93879036 .00001065 00000-0 12986-3 0 9996

TLE line 2: 2 40717 97.6850 172.8048 0006915 100.6400 259.5595 14.85321239555438

Live tracking on map

Real-time ground track for satellite DMC 3-FM3.

In-orbit conjunctions

There are no conjunctions computed for DMC 3-FM3, at the moment. Check back to stay up to date, as we update our databases every day.

Go to all conjunctions

Associated space launch

The Polar Satellite Launch Vehicle (PSLV), in its thirtieth flight (PSLV-C28), will launch three identical DMC3 optical earth observation satellites. A, B and C. It will also carry two auxiliary satellites from UK. CBNT-1, a technology demonstrator earth observation micro satellite, and De-OrbitSail, a technology demonstrator nano satellite.

DMC 3-FM3 was lifted into orbit during the mission ‘PSLV XL | DMC-3A, DMC-3B, DMC-3C, CBNT-1 & DeOrbitSAIL’, on board a PSLV-XL space rocket.

The launch took place on July 10, 2015, 4:28 p.m. from Satish Dhawan Space Centre First Launch Pad.

For more information about the launch, click the button.

Launch to space PSLV XL | DMC-3A, DMC-3B, DMC-3C, CBNT-1 & DeOrbitSAIL
PSLV XL | DMC-3A, DMC-3B, DMC-3C, CBNT-1 & DeOrbitSAIL

Agency: N/A

Status: Launch Successful

Launch date: July 10, 2015, 4:28 p.m. UTC

Rocket: PSLV-XL

Launch pad: Satish Dhawan Space Centre First Launch Pad

Location: Satish Dhawan Space Centre, India

...

Latest news about this satellite

There are no fresh news available about this satellite. Check back as we update our databases every day.


Newsletter sign-up

Weekly statistics, charts and insights to help you stay on top of the space industry.